Regional Weather Roundup
Issued by NWS

Home | Current Version | Previous Version | Text Only | Print | Product List | Glossary Off
Versions: 1 2 3 4 5 6 7 8 9 10 11 12 13 14 15 16 17 18 19 20 21 22 23 24 25 26 27 28 29 30 31 32 33 34 35 36 37 38 39 40 41 42 43 44 45 46 47 48 49 50

729
ASUS43 KFSD 221902
RWRSD

WEATHER ROUNDUP FOR SOUTH DAKOTA
NATIONAL WEATHER SERVICE SIOUX FALLS SD
200 PM CDT FRI MAY 22 2015

NOTE: "FAIR" INDICATES FEW OR NO CLOUDS BELOW 12,000 FEET WITH NO
SIGNIFICANT WEATHER AND/OR OBSTRUCTIONS TO VISIBILITY.


SDZ001>005-009-010-012>017-222000-
NORTHWEST AND NORTH CENTRAL SOUTH DAKOTA

CITY           SKY/WX    TMP DP  RH WIND       PRES   REMARKS
BUFFALO          N/A     66  40  38 SE20G32   30.00F
MOBRIDGE       MOSUNNY   76  35  22 SE20      30.11F
$$

SDZ012>016-024>037-041>051-057-063-072>074-222000-
SOUTHWEST AND SOUTH CENTRAL SOUTH DAKOTA

CITY           SKY/WX    TMP DP  RH WIND       PRES   REMARKS
RAPID CTY ARPT CLOUDY    59  44  57 S17       30.08F
PIERRE         PTSUNNY   71  38  29 SE18G31   30.12F
CUSTER         CLOUDY    47  38  71 SE9       30.11S
ELLSWORTH AFB  CLOUDY    59  45  59 S16       30.08S
PHILIP         PTSUNNY   67  38  34 S24G31    30.10S
PINE RIDGE     CLOUDY    56  40  55 SE21G26   30.10S
WINNER         FAIR      68  37  32 SE18G24   30.16S
$$

SDZ004>011-016>023-039-040-222000-
NORTHEAST SOUTH DAKOTA

CITY           SKY/WX    TMP DP  RH WIND       PRES   REMARKS
ABERDEEN       PTSUNNY   77  35  21 MISG      30.15F
WATERTOWN      SUNNY     74  36  25 VRB5      30.19F
BROOKINGS      MOSUNNY   72  34  25 E9        30.19F
$$

SDZ017-020-022-023-036>040-048>070-222000-
SOUTHEAST SOUTH DAKOTA

CITY           SKY/WX    TMP DP  RH WIND       PRES   REMARKS
SIOUX FALLS    CLOUDY    72  40  31 VRB3      30.18F
HURON          SUNNY     75  38  26 S9G20     30.16F
CHAMBERLAIN    PTSUNNY   69  39  33 S22G30    30.16S
MITCHELL       PTSUNNY   74  40  29 S10       30.17F
YANKTON        CLOUDY    72  39  30 S15G22    30.18S
$$

ABBREVIATIONS USED IN REMARKS
   TC - TEMPERATURE IN CELSIUS
  WCI - WIND CHILL INDEX
   HX - HEAT INDEX
  VSB - VISIBILITY




USA.gov is the U.S. government's official web portal to all federal, state and local government web resources and services.